1
2
3
4 106834 303373_3e4cee13b3_z.jpg
4 10802802545_a9b4132ffc_z.jpg
4 10802961384_71fee4c235_z.jpg

KOUN 030520Z 0306/0406 05006KT P6SM -RA SCT040 OVC050

FM030800 05007KT P6SM VCSH OVC025

FM031200 07007KT P6SM OVC030

FM031600 07007KT 4SM -RA OVC009
KOUN 030635Z AUTO 04005KT 10SM -DZ OVC095 07/07 A3023 RMK AO2

News

Movie Night  Join us on Dec 16 to watch The Iron Giant (1999) on the hangar big screen.  Admission is free but seating is limited.  Tickets will be available here starting Dec 9 at noon.  A cash concession stand will be available by the Sooner Aviation Club and seating is provided.

Field Trips and School Programs  Want to engage your class with enriching STEM activities?  Fill out the School Activity Survey on our Teacher page today.  Log-in and make sure you have Teacher access by updating your info in the menu on the left.

Summer Camp  2017 Summer camp schedule is now available.  Registration will open on March 1st.  Visit the summer camp page for more info.  Learn more about summer camp and scholarships in our FAQ

Are you interested in learning how to decode the Terminal Area Forecast (TAF) located in the upper right corner of this News section?  Click here to link to the Aviation Weather Center explanation.

If you have attended any of our events, we would love to hear your feedback.  Click here for the form.  We would also love any recommendations you wanted to leave on Facebook.